| time (UTC) | temp C | wind direction | speed KPH | gust KPH | rain 1hr cm | rain 24hr cm | rain mn cm | humidity % | barometer mb |
| 20260505063935 | 18 | 240 | 14.5 | 24.1 | 0.00 | 0.00 | 0.00 | 71 | 1006.6 |
| 20260505063446 | 18 | 238 | 12.9 | 27.4 | 0.00 | 0.00 | 0.00 | 70 | 1006.7 |
| 20260505063104 | 18 | 230 | 14.5 | 29.0 | 0.00 | 0.00 | 0.00 | 70 | 1006.1 |
| 20260505062927 | 18 | 224 | 12.9 | 29.0 | 0.00 | 0.00 | 0.00 | 70 | 1006.9 |
| 20260505062436 | 18 | 246 | 17.7 | 29.0 | 0.00 | 0.00 | 0.00 | 70 | 1007.0 |
| 20260505061945 | 18 | 237 | 11.3 | 24.1 | 0.00 | 0.00 | 0.00 | 69 | 1006.9 |
| 20260505061512 | 18 | 226 | 11.3 | 25.7 | 0.00 | 0.00 | 0.00 | 69 | 1006.2 |
| 20260505061425 | 18 | 265 | 11.3 | 25.7 | 0.00 | 0.00 | 0.00 | 69 | 1006.9 |
| 20260505060936 | 19 | 212 | 12.9 | 25.7 | 0.00 | 0.00 | 0.00 | 69 | 1006.9 |
| 20260505060448 | 18 | 236 | 11.3 | 24.1 | 0.00 | 0.00 | 0.00 | 68 | 1007.1 |
| 20260505060055 | 18 | 239 | 12.9 | 24.1 | 0.00 | 0.00 | 0.00 | 68 | 1006.4 |
| 20260505055926 | 18 | 253 | 11.3 | 22.5 | 0.00 | 0.00 | 0.00 | 68 | 1007.1 |
| 20260505055438 | 18 | 252 | 12.9 | 25.7 | 0.00 | 0.00 | 0.00 | 68 | 1007.2 |
| 20260505054948 | 18 | 240 | 11.3 | 25.7 | 0.00 | 0.00 | 0.00 | 68 | 1007.2 |
| 20260505054628 | 18 | 219 | 11.3 | 20.9 | 0.00 | 0.00 | 0.00 | 67 | 1006.5 |
| 20260505054458 | 19 | 174 | 11.3 | 20.9 | 0.00 | 0.00 | 0.00 | 67 | 1007.3 |
| 20260505053939 | 18 | 232 | 11.3 | 20.9 | 0.00 | 0.00 | 0.00 | 67 | 1007.3 |
| 20260505053431 | 19 | 251 | 9.7 | 20.9 | 0.00 | 0.00 | 0.00 | 67 | 1007.4 |
| 20260505053059 | 18 | 243 | 11.3 | 27.4 | 0.00 | 0.00 | 0.00 | 67 | 1006.8 |
| 20260505052930 | 18 | 225 | 11.3 | 27.4 | 0.00 | 0.00 | 0.00 | 67 | 1007.6 |
| 20260505052510 | 19 | 235 | 11.3 | 27.4 | 0.00 | 0.00 | 0.00 | 66 | 1007.6 |
| 20260505051931 | 18 | 250 | 11.3 | 20.9 | 0.00 | 0.00 | 0.00 | 67 | 1007.5 |
| 20260505051533 | 18 | 236 | 8.0 | 17.7 | 0.00 | 0.00 | 0.00 | 66 | 1006.7 |
| 20260505051439 | 19 | 237 | 9.7 | 17.7 | 0.00 | 0.00 | 0.00 | 66 | 1007.5 |
| 20260505050922 | 18 | 240 | 9.7 | 24.1 | 0.00 | 0.00 | 0.00 | 67 | 1007.5 |
| 20260505050433 | 18 | 225 | 11.3 | 24.1 | 0.00 | 0.00 | 0.00 | 66 | 1007.8 |
| 20260505041541 | 19 | 231 | 6.4 | 20.9 | 0.00 | 0.00 | 0.00 | 66 | 1007.3 |
| 20260505041421 | 19 | 240 | 8.0 | 20.9 | 0.00 | 0.00 | 0.00 | 66 | 1008.2 |
| 20260505040933 | 19 | 246 | 9.7 | 20.9 | 0.00 | 0.00 | 0.00 | 66 | 1008.1 |
| 20260505040425 | 19 | 248 | 8.0 | 22.5 | 0.00 | 0.00 | 0.00 | 66 | 1008.1 |
| 20260505040050 | 19 | 231 | 8.0 | 22.5 | 0.00 | 0.00 | 0.00 | 65 | 1007.3 |
| 20260505035925 | 19 | 198 | 9.7 | 14.5 | 0.00 | 0.00 | 0.00 | 65 | 1008.1 |
| 20260505035437 | 20 | 217 | 8.0 | 14.5 | 0.00 | 0.00 | 0.00 | 65 | 1008.1 |
| 20260505034929 | 19 | 226 | 9.7 | 14.5 | 0.00 | 0.00 | 0.00 | 66 | 1008.1 |
| 20260505034555 | 19 | 240 | 8.0 | 16.1 | 0.00 | 0.00 | 0.00 | 66 | 1007.3 |
| 20260505034429 | 19 | 225 | 9.7 | 17.7 | 0.00 | 0.00 | 0.00 | 66 | 1008.2 |
| 20260505033940 | 20 | 231 | 9.7 | 17.7 | 0.00 | 0.00 | 0.00 | 65 | 1008.2 |
| 20260505033432 | 20 | 257 | 8.0 | 14.5 | 0.00 | 0.00 | 0.00 | 65 | 1008.3 |
| 20260505033047 | 19 | 236 | 6.4 | 19.3 | 0.00 | 0.00 | 0.00 | 65 | 1007.5 |
| 20260505032928 | 20 | 230 | 8.0 | 19.3 | 0.00 | 0.00 | 0.00 | 65 | 1008.3 |
| 20260505032445 | 20 | 213 | 8.0 | 19.3 | 0.00 | 0.00 | 0.00 | 65 | 1008.3 |
| 20260505031928 | 20 | 251 | 6.4 | 14.5 | 0.00 | 0.00 | 0.00 | 64 | 1008.3 |
| 20260505031541 | 20 | 259 | 6.4 | 14.5 | 0.00 | 0.00 | 0.00 | 64 | 1007.5 |
| 20260505031439 | 20 | 208 | 6.4 | 14.5 | 0.00 | 0.00 | 0.00 | 64 | 1008.3 |
| 20260505030950 | 20 | 236 | 8.0 | 11.3 | 0.00 | 0.00 | 0.00 | 64 | 1008.3 |
| 20260505030431 | 20 | 237 | 6.4 | 16.1 | 0.00 | 0.00 | 0.00 | 65 | 1008.2 |
| 20260505030036 | 20 | 234 | 6.4 | 16.1 | 0.00 | 0.00 | 0.00 | 64 | 1007.3 |
| 20260505025941 | 20 | 233 | 8.0 | 16.1 | 0.00 | 0.00 | 0.00 | 64 | 1008.1 |
| 20260505025423 | 20 | 235 | 8.0 | 14.5 | 0.00 | 0.00 | 0.00 | 64 | 1007.9 |
| 20260505024935 | 20 | 258 | 8.0 | 14.5 | 0.00 | 0.00 | 0.00 | 64 | 1007.9 |
| 20260505024544 | 20 | 236 | 6.4 | 12.9 | 0.00 | 0.00 | 0.00 | 64 | 1007.1 |
| 20260505024445 | 20 | 244 | 8.0 | 16.1 | 0.00 | 0.00 | 0.00 | 64 | 1007.8 |
| 20260505023927 | 20 | 254 | 8.0 | 16.1 | 0.00 | 0.00 | 0.00 | 64 | 1007.9 |
| 20260505023439 | 20 | 212 | 8.0 | 16.1 | 0.00 | 0.00 | 0.00 | 64 | 1007.7 |
| 20260505023106 | 20 | 240 | 6.4 | 14.5 | 0.00 | 0.00 | 0.00 | 63 | 1006.9 |
| 20260505022948 | 20 | 229 | 8.0 | 14.5 | 0.00 | 0.00 | 0.00 | 63 | 1007.6 |
| 20260505022431 | 20 | 240 | 8.0 | 16.1 | 0.00 | 0.00 | 0.00 | 63 | 1007.6 |
| 20260505021922 | 20 | 223 | 8.0 | 17.7 | 0.00 | 0.00 | 0.00 | 63 | 1007.5 |
| 20260505021539 | 20 | 240 | 8.0 | 17.7 | 0.00 | 0.00 | 0.00 | 63 | 1006.6 |
| 20260505021423 | 21 | 181 | 8.0 | 17.7 | 0.00 | 0.00 | 0.00 | 63 | 1007.4 |
| 20260505020935 | 20 | 229 | 9.7 | 16.1 | 0.00 | 0.00 | 0.00 | 63 | 1007.5 |
| 20260505020502 | 20 | 243 | 9.7 | 16.1 | 0.00 | 0.00 | 0.00 | 63 | 1007.5 |
| 20260505020031 | 20 | 209 | 6.4 | 12.9 | 0.00 | 0.00 | 0.00 | 63 | 1006.5 |
| 20260505015931 | 21 | 250 | 8.0 | 12.9 | 0.00 | 0.00 | 0.00 | 63 | 1007.4 |
| 20260505015502 | 21 | 240 | 8.0 | 16.1 | 0.00 | 0.00 | 0.00 | 62 | 1007.4 |
| 20260505014924 | 21 | 239 | 8.0 | 16.1 | 0.00 | 0.00 | 0.00 | 62 | 1007.4 |
| 20260505014512 | 20 | 248 | 6.4 | 12.9 | 0.00 | 0.00 | 0.00 | 62 | 1006.5 |
| 20260505014453 | 21 | 248 | 8.0 | 19.3 | 0.00 | 0.00 | 0.00 | 62 | 1007.5 |
| 20260505013943 | 21 | 233 | 8.0 | 19.3 | 0.00 | 0.00 | 0.00 | 62 | 1007.4 |
| 20260505013433 | 21 | 234 | 6.4 | 16.1 | 0.00 | 0.00 | 0.00 | 62 | 1007.4 |
| 20260505013045 | 21 | 188 | 6.4 | 17.7 | 0.00 | 0.00 | 0.00 | 62 | 1006.4 |
| 20260505012943 | 21 | 124 | 8.0 | 17.7 | 0.00 | 0.00 | 0.00 | 62 | 1007.3 |
| 20260505012425 | 21 | 243 | 8.0 | 17.7 | 0.00 | 0.00 | 0.00 | 61 | 1007.2 |
| 20260505011938 | 21 | 236 | 6.4 | 11.3 | 0.00 | 0.00 | 0.00 | 61 | 1007.2 |
| 20260505011551 | 21 | 217 | 4.8 | 14.5 | 0.00 | 0.00 | 0.00 | 61 | 1006.4 |
| 20260505011448 | 21 | 229 | 8.0 | 14.5 | 0.00 | 0.00 | 0.00 | 61 | 1007.3 |
| 20260505010930 | 21 | 231 | 8.0 | 14.5 | 0.00 | 0.00 | 0.00 | 61 | 1007.2 |
| 20260505010441 | 21 | 252 | 8.0 | 17.7 | 0.00 | 0.00 | 0.00 | 60 | 1007.1 |
| 20260505010037 | 21 | 244 | 6.4 | 17.7 | 0.00 | 0.00 | 0.00 | 61 | 1006.3 |
| 20260505005922 | 21 | 240 | 8.0 | 17.7 | 0.00 | 0.00 | 0.00 | 61 | 1007.2 |
| 20260505005458 | 21 | 240 | 8.0 | 14.5 | 0.00 | 0.00 | 0.00 | 60 | 1007.1 |
| 20260505005009 | 21 | 244 | 6.4 | 11.3 | 0.00 | 0.00 | 0.00 | 61 | 1007.1 |
| 20260505004502 | 21 | 232 | 6.4 | 14.5 | 0.00 | 0.00 | 0.00 | 60 | 1006.3 |
| 20260505004428 | 21 | 252 | 8.0 | 14.5 | 0.00 | 0.00 | 0.00 | 60 | 1007.2 |
| 20260505003940 | 22 | 213 | 6.4 | 19.3 | 0.00 | 0.00 | 0.00 | 60 | 1007.1 |
| 20260505003451 | 22 | 226 | 8.0 | 19.3 | 0.00 | 0.00 | 0.00 | 59 | 1007.1 |
| 20260505003009 | 21 | 211 | 6.4 | 12.9 | 0.00 | 0.00 | 0.00 | 59 | 1006.3 |
| 20260505002931 | 22 | 205 | 6.4 | 12.9 | 0.00 | 0.00 | 0.00 | 59 | 1007.2 |
| 20260505002420 | 22 | 235 | 6.4 | 16.1 | 0.00 | 0.00 | 0.00 | 59 | 1007.2 |
| 20260505001933 | 22 | 238 | 8.0 | 16.1 | 0.00 | 0.00 | 0.00 | 59 | 1007.2 |
| 20260505001601 | 22 | 236 | 6.4 | 14.5 | 0.00 | 0.00 | 0.00 | 59 | 1006.3 |
| 20260505001433 | 22 | 232 | 8.0 | 14.5 | 0.00 | 0.00 | 0.00 | 59 | 1007.3 |
| 20260505000925 | 22 | 259 | 8.0 | 20.9 | 0.00 | 0.00 | 0.00 | 58 | 1007.4 |
| 20260505000428 | 22 | 238 | 8.0 | 17.7 | 0.00 | 0.00 | 0.00 | 58 | 1007.3 |
| 20260505000007 | 22 | 235 | 6.4 | 17.7 | 0.00 | 0.00 | 0.00 | 57 | 1006.5 |
| 20260504235938 | 22 | 236 | 8.0 | 17.7 | 0.00 | 0.00 | 0.00 | 57 | 1007.3 |
| 20260504235429 | 22 | 244 | 9.7 | 16.1 | 0.00 | 0.00 | 0.00 | 56 | 1007.3 |
| 20260504234939 | 22 | 248 | 9.7 | 20.9 | 0.00 | 0.00 | 0.00 | 56 | 1007.3 |
| 20260504234554 | 22 | 244 | 9.7 | 20.9 | 0.00 | 0.00 | 0.00 | 57 | 1006.4 |
| 20260504234436 | 22 | 264 | 11.3 | 20.9 | 0.00 | 0.00 | 0.00 | 56 | 1007.3 |
| 20260504233926 | 22 | 237 | 8.0 | 16.1 | 0.00 | 0.00 | 0.00 | 57 | 1007.3 |
| 20260504233438 | 22 | 245 | 11.3 | 16.1 | 0.00 | 0.00 | 0.00 | 56 | 1007.4 |
| 20260504233111 | 22 | 236 | 8.0 | 12.9 | 0.00 | 0.00 | 0.00 | 56 | 1006.5 |
| 20260504233008 | 23 | 205 | 8.0 | 14.5 | 0.00 | 0.00 | 0.00 | 57 | 1007.4 |
| 20260504232430 | 23 | 228 | 8.0 | 19.3 | 0.00 | 0.00 | 0.00 | 56 | 1007.5 |
| 20260504231941 | 23 | 195 | 9.7 | 19.3 | 0.00 | 0.00 | 0.00 | 55 | 1007.6 |
| 20260504231548 | 22 | 253 | 6.4 | 19.3 | 0.00 | 0.00 | 0.00 | 56 | 1006.8 |
| 20260504231422 | 23 | 236 | 8.0 | 19.3 | 0.00 | 0.00 | 0.00 | 55 | 1007.7 |
| 20260504230933 | 23 | 252 | 11.3 | 19.3 | 0.00 | 0.00 | 0.00 | 55 | 1007.7 |
| 20260504230425 | 23 | 249 | 11.3 | 19.3 | 0.00 | 0.00 | 0.00 | 54 | 1007.8 |
| 20260504230040 | 23 | 232 | 9.7 | 19.3 | 0.00 | 0.00 | 0.00 | 56 | 1007.0 |
| 20260504225955 | 23 | 242 | 9.7 | 19.3 | 0.00 | 0.00 | 0.00 | 55 | 1007.9 |
| 20260504225446 | 23 | 248 | 9.7 | 16.1 | 0.00 | 0.00 | 0.00 | 55 | 1008.0 |
| 20260504224949 | 23 | 241 | 9.7 | 19.3 | 0.00 | 0.00 | 0.00 | 55 | 1008.1 |
| 20260504224501 | 23 | 238 | 11.3 | 19.3 | 0.00 | 0.00 | 0.00 | 54 | 1007.3 |
| 20260504224438 | 23 | 237 | 11.3 | 19.3 | 0.00 | 0.00 | 0.00 | 54 | 1008.2 |
| 20260504223929 | 23 | 236 | 11.3 | 20.9 | 0.00 | 0.00 | 0.00 | 54 | 1008.1 |
| 20260504223432 | 23 | 251 | 9.7 | 20.9 | 0.00 | 0.00 | 0.00 | 54 | 1008.1 |
| 20260504223011 | 23 | 236 | 8.0 | 20.9 | 0.00 | 0.00 | 0.00 | 54 | 1007.3 |
| 20260504222922 | 23 | 251 | 9.7 | 20.9 | 0.00 | 0.00 | 0.00 | 54 | 1008.2 |
| 20260504222450 | 23 | 227 | 9.7 | 24.1 | 0.00 | 0.00 | 0.00 | 54 | 1008.1 |
| 20260504221941 | 23 | 255 | 11.3 | 24.1 | 0.00 | 0.00 | 0.00 | 53 | 1008.2 |
| 20260504221612 | 23 | 241 | 12.9 | 19.3 | 0.00 | 0.00 | 0.00 | 53 | 1007.3 |
| 20260504221422 | 24 | 246 | 11.3 | 19.3 | 0.00 | 0.00 | 0.00 | 52 | 1008.3 |
| 20260504220934 | 24 | 198 | 9.7 | 19.3 | 0.00 | 0.00 | 0.00 | 53 | 1008.3 |
| 20260504220444 | 24 | 242 | 11.3 | 19.3 | 0.00 | 0.00 | 0.00 | 52 | 1008.3 |
| 20260504220011 | 23 | 248 | 9.7 | 20.9 | 0.00 | 0.00 | 0.00 | 53 | 1007.4 |
| 20260504215925 | 24 | 214 | 9.7 | 20.9 | 0.00 | 0.00 | 0.00 | 53 | 1008.3 |
| 20260504215436 | 24 | 154 | 14.5 | 22.5 | 0.00 | 0.00 | 0.00 | 51 | 1008.5 |
| 20260504214938 | 24 | 231 | 11.3 | 22.5 | 0.00 | 0.00 | 0.00 | 52 | 1008.5 |
| 20260504214512 | 23 | 171 | 12.9 | 22.5 | 0.00 | 0.00 | 0.00 | 52 | 1007.7 |
| 20260504214447 | 24 | 241 | 12.9 | 22.5 | 0.00 | 0.00 | 0.00 | 51 | 1008.5 |
| 20260504213937 | 24 | 225 | 12.9 | 20.9 | 0.00 | 0.00 | 0.00 | 50 | 1008.6 |
| 20260504213428 | 24 | 241 | 12.9 | 20.9 | 0.00 | 0.00 | 0.00 | 51 | 1008.5 |
| 20260504213044 | 24 | 239 | 9.7 | 24.1 | 0.00 | 0.00 | 0.00 | 52 | 1007.7 |
| 20260504212937 | 24 | 251 | 11.3 | 24.1 | 0.00 | 0.00 | 0.00 | 51 | 1008.6 |
| 20260504212447 | 25 | 250 | 12.9 | 24.1 | 0.00 | 0.00 | 0.00 | 50 | 1008.7 |
| 20260504211929 | 25 | 236 | 11.3 | 20.9 | 0.00 | 0.00 | 0.00 | 51 | 1008.7 |
| 20260504211526 | 24 | 260 | 9.7 | 22.5 | 0.00 | 0.00 | 0.00 | 51 | 1008.0 |
| 20260504211435 | 25 | 248 | 11.3 | 22.5 | 0.00 | 0.00 | 0.00 | 51 | 1008.8 |
| 20260504210947 | 25 | 238 | 9.7 | 22.5 | 0.00 | 0.00 | 0.00 | 50 | 1008.9 |
| 20260504210429 | 24 | 206 | 14.5 | 27.4 | 0.00 | 0.00 | 0.00 | 49 | 1009.0 |
| 20260504210034 | 24 | 255 | 14.5 | 27.4 | 0.00 | 0.00 | 0.00 | 49 | 1008.2 |
| 20260504205940 | 24 | 231 | 16.1 | 27.4 | 0.00 | 0.00 | 0.00 | 49 | 1009.0 |
| 20260504205423 | 25 | 249 | 12.9 | 27.4 | 0.00 | 0.00 | 0.00 | 50 | 1009.1 |
| 20260504204934 | 25 | 219 | 12.9 | 27.4 | 0.00 | 0.00 | 0.00 | 50 | 1009.0 |
| 20260504204521 | 24 | 251 | 9.7 | 24.1 | 0.00 | 0.00 | 0.00 | 50 | 1008.4 |
| 20260504204423 | 24 | 250 | 9.7 | 20.9 | 0.00 | 0.00 | 0.00 | 50 | 1009.3 |
| 20260504203925 | 25 | 213 | 12.9 | 20.9 | 0.00 | 0.00 | 0.00 | 49 | 1009.3 |
| 20260504203436 | 25 | 227 | 11.3 | 20.9 | 0.00 | 0.00 | 0.00 | 50 | 1009.4 |
| 20260504203029 | 24 | 243 | 11.3 | 29.0 | 0.00 | 0.00 | 0.00 | 51 | 1008.5 |
| 20260504202925 | 25 | 208 | 11.3 | 29.0 | 0.00 | 0.00 | 0.00 | 50 | 1009.4 |
| 20260504202427 | 25 | 218 | 14.5 | 29.0 | 0.00 | 0.00 | 0.00 | 49 | 1009.4 |
| 20260504201939 | 25 | 239 | 9.7 | 20.9 | 0.00 | 0.00 | 0.00 | 51 | 1009.5 |
| 20260504201535 | 24 | 223 | 9.7 | 24.1 | 0.00 | 0.00 | 0.00 | 50 | 1008.7 |
| 20260504201430 | 24 | 227 | 11.3 | 24.1 | 0.00 | 0.00 | 0.00 | 50 | 1009.6 |
| 20260504200940 | 24 | 250 | 12.9 | 24.1 | 0.00 | 0.00 | 0.00 | 51 | 1009.8 |
| 20260504200511 | 24 | 237 | 14.5 | 24.1 | 0.00 | 0.00 | 0.00 | 51 | 1009.8 |
| 20260504200104 | 24 | 237 | 11.3 | 22.5 | 0.00 | 0.00 | 0.00 | 50 | 1009.0 |
| 20260504195931 | 25 | 247 | 11.3 | 20.9 | 0.00 | 0.00 | 0.00 | 51 | 1009.9 |
| 20260504195422 | 25 | 156 | 9.7 | 24.1 | 0.00 | 0.00 | 0.00 | 49 | 1010.0 |
| 20260504194951 | 25 | 247 | 14.5 | 25.7 | 0.00 | 0.00 | 0.00 | 50 | 1010.0 |
| 20260504194506 | 24 | 245 | 14.5 | 25.7 | 0.00 | 0.00 | 0.00 | 50 | 1009.1 |
| 20260504194429 | 25 | 245 | 14.5 | 25.7 | 0.00 | 0.00 | 0.00 | 50 | 1010.0 |
| 20260504193949 | 25 | 233 | 12.9 | 25.7 | 0.00 | 0.00 | 0.00 | 48 | 1010.1 |
| 20260504193431 | 25 | 243 | 11.3 | 20.9 | 0.00 | 0.00 | 0.00 | 49 | 1010.3 |
| 20260504193035 | 25 | 248 | 9.7 | 20.9 | 0.00 | 0.00 | 0.00 | 49 | 1009.5 |
| 20260504192940 | 25 | 236 | 9.7 | 20.9 | 0.00 | 0.00 | 0.00 | 50 | 1010.4 |
| 20260504192422 | 25 | 233 | 9.7 | 24.1 | 0.00 | 0.00 | 0.00 | 51 | 1010.5 |
| 20260504191935 | 24 | 243 | 12.9 | 27.4 | 0.00 | 0.00 | 0.00 | 51 | 1010.5 |
| 20260504191542 | 24 | 230 | 12.9 | 27.4 | 0.00 | 0.00 | 0.00 | 49 | 1009.7 |
| 20260504191444 | 25 | 236 | 14.5 | 27.4 | 0.00 | 0.00 | 0.00 | 49 | 1010.7 |
| 20260504190947 | 25 | 234 | 11.3 | 24.1 | 0.00 | 0.00 | 0.00 | 51 | 1010.6 |
| 20260504190437 | 24 | 245 | 12.9 | 25.7 | 0.00 | 0.00 | 0.00 | 50 | 1010.6 |
| 20260504190028 | 23 | 251 | 12.9 | 25.7 | 0.00 | 0.00 | 0.00 | 51 | 1009.8 |
| 20260504185927 | 24 | 273 | 14.5 | 25.7 | 0.00 | 0.00 | 0.00 | 50 | 1010.6 |
| 20260504185458 | 24 | 226 | 9.7 | 25.7 | 0.00 | 0.00 | 0.00 | 53 | 1010.8 |
| 20260504184929 | 23 | 253 | 16.1 | 25.7 | 0.00 | 0.00 | 0.00 | 50 | 1010.8 |
| 20260504184556 | 23 | 229 | 12.9 | 24.1 | 0.00 | 0.00 | 0.00 | 52 | 1010.0 |
| 20260504184424 | 23 | 239 | 16.1 | 24.1 | 0.00 | 0.00 | 0.00 | 51 | 1011.0 |
| 20260504183935 | 24 | 246 | 12.9 | 22.5 | 0.00 | 0.00 | 0.00 | 53 | 1011.0 |
| 20260504183446 | 23 | 245 | 12.9 | 20.9 | 0.00 | 0.00 | 0.00 | 52 | 1011.1 |
| 20260504183041 | 23 | 234 | 14.5 | 25.7 | 0.00 | 0.00 | 0.00 | 53 | 1010.2 |
| 20260504182936 | 24 | 203 | 12.9 | 25.7 | 0.00 | 0.00 | 0.00 | 51 | 1011.0 |
| 20260504182438 | 23 | 226 | 16.1 | 25.7 | 0.00 | 0.00 | 0.00 | 51 | 1010.8 |
| 20260504181927 | 24 | 231 | 12.9 | 19.3 | 0.00 | 0.00 | 0.00 | 51 | 1011.1 |
| 20260504181529 | 23 | 243 | 9.7 | 19.3 | 0.00 | 0.00 | 0.00 | 52 | 1010.4 |
| 20260504181436 | 23 | 229 | 9.7 | 19.3 | 0.00 | 0.00 | 0.00 | 52 | 1011.1 |
| 20260504180947 | 23 | 281 | 9.7 | 19.3 | 0.00 | 0.00 | 0.00 | 52 | 1011.1 |
| 20260504180449 | 24 | 224 | 11.3 | 19.3 | 0.00 | 0.00 | 0.00 | 51 | 1011.3 |
| 20260504180012 | 23 | 252 | 8.0 | 19.3 | 0.00 | 0.00 | 0.00 | 55 | 1010.6 |
| 20260504175938 | 24 | 245 | 8.0 | 19.3 | 0.00 | 0.00 | 0.00 | 53 | 1011.3 |
| 20260504175421 | 23 | 243 | 11.3 | 20.9 | 0.00 | 0.00 | 0.00 | 53 | 1011.3 |
| 20260504174931 | 23 | 233 | 9.7 | 19.3 | 0.00 | 0.00 | 0.00 | 52 | 1011.4 |
| 20260504174518 | 23 | 240 | 9.7 | 22.5 | 0.00 | 0.00 | 0.00 | 52 | 1010.7 |
| 20260504174421 | 23 | 258 | 9.7 | 22.5 | 0.00 | 0.00 | 0.00 | 53 | 1011.5 |
| 20260504173923 | 23 | 245 | 12.9 | 25.7 | 0.00 | 0.00 | 0.00 | 52 | 1011.5 |
| 20260504173435 | 23 | 249 | 11.3 | 17.7 | 0.00 | 0.00 | 0.00 | 52 | 1011.7 |
| 20260504173025 | 23 | 247 | 9.7 | 19.3 | 0.00 | 0.00 | 0.00 | 52 | 1011.0 |
| 20260504172925 | 23 | 230 | 11.3 | 19.3 | 0.00 | 0.00 | 0.00 | 52 | 1011.8 |
| 20260504172423 | 23 | 253 | 11.3 | 27.4 | 0.00 | 0.00 | 0.00 | 52 | 1011.8 |
| 20260504171935 | 23 | 243 | 14.5 | 27.4 | 0.00 | 0.00 | 0.00 | 52 | 1011.9 |
| 20260504171534 | 22 | 249 | 12.9 | 24.1 | 0.00 | 0.00 | 0.00 | 53 | 1011.1 |
| 20260504171445 | 23 | 252 | 12.9 | 24.1 | 0.00 | 0.00 | 0.00 | 53 | 1012.0 |
| 20260504170932 | 23 | 247 | 16.1 | 24.1 | 0.00 | 0.00 | 0.00 | 53 | 1011.9 |
| 20260504170435 | 23 | 250 | 12.9 | 25.7 | 0.00 | 0.00 | 0.00 | 52 | 1012.0 |
| 20260504160428 | 22 | 223 | 11.3 | 24.1 | 0.00 | 0.00 | 0.00 | 54 | 1012.8 |
| 20260504150957 | 20 | 249 | 12.9 | 16.1 | 0.00 | 0.00 | 0.00 | 64 | 1012.8 |
| 20260504150442 | 20 | 255 | 8.0 | 12.9 | 0.00 | 0.00 | 0.00 | 67 | 1012.8 |
| 20260504140928 | 17 | 264 | 3.2 | 12.9 | 0.00 | 0.00 | 0.00 | 76 | 1013.3 |
| 20260504140440 | 16 | 250 | 6.4 | 12.9 | 0.00 | 0.00 | 0.00 | 76 | 1013.3 |
| 20260504130432 | 13 | 239 | 3.2 | 4.8 | 0.00 | 0.00 | 0.00 | 85 | 1013.2 |
| 20260504110507 | 13 | 251 | 4.8 | 6.4 | 0.00 | 0.00 | 0.00 | 81 | 1012.2 |
| 20260504100431 | 15 | 236 | 4.8 | 8.0 | 0.00 | 0.00 | 0.00 | 77 | 1012.8 |
| 20260504082008 | 16 | 245 | 6.4 | 9.7 | 0.00 | 0.00 | 0.00 | 75 | 1012.9 |
| 20260504081501 | 15 | 244 | 4.8 | 8.0 | 0.00 | 0.00 | 0.00 | 74 | 1012.2 |
| 20260504081428 | 16 | 239 | 4.8 | 8.0 | 0.00 | 0.00 | 0.00 | 74 | 1012.9 |
| 20260504080938 | 16 | 248 | 4.8 | 8.0 | 0.00 | 0.00 | 0.00 | 74 | 1012.9 |
| 20260504080450 | 16 | 252 | 4.8 | 8.0 | 0.00 | 0.00 | 0.00 | 74 | 1013.0 |
| 20260504070109 | 16 | 238 | 4.8 | 6.4 | 0.00 | 0.00 | 0.00 | 74 | 1012.8 |